Location: Arthez
(43.0833°N, 0.2500°W)
Time: 02:31:38
(UTC+00:00)

NOSS 3-1 (A) - Pass Details

Date: 29 May 2022
Orbit: 711 x 1501 km, 63.4° (Epoch: 21 May)

Event Time Altitude Azimuth Distance (km) Brightness Sun altitude
Rises 20:37:28 0° 321° (NW) 3,698 8.6 -10.4°
Reaches altitude 10° 20:40:54 10° 341° (NNW) 2,896 7.1 -10.9°
Maximum altitude 20:45:32 18° 23° (NNE) 2,518 5.9 -11.5°
Drops below altitude 10° 20:50:42 10° 64° (ENE) 3,284 6.1 -12.1°
Sets 20:54:56 0° 82° (E) 4,393 6.6 -12.7°
